EST,Max TemperatureF,Mean TemperatureF,Min TemperatureF,Max Dew PointF,MeanDew PointF,Min DewpointF,Max Humidity, Mean Humidity, Min Humidity, Max Sea Level PressureIn, Mean Sea Level PressureIn, Min Sea Level PressureIn, Max VisibilityMiles, Mean VisibilityMiles, Min VisibilityMiles, Max Wind SpeedMPH, Mean Wind SpeedMPH, Max Gust SpeedMPH,PrecipitationIn, CloudCover, Events, WindDirDegrees
2013-2-1,35,25,15,28,8,1,86,57,39,30.29,30.13,29.78,10,10,4,24,16,39,0.00,2,Snow,279
2013-2-2,33,22,12,28,17,7,100,78,40,30.28,30.13,29.97,10,8,1,12,5,17,0.03,4,Snow,233
2013-2-3,35,30,26,28,24,19,100,76,65,30.00,29.90,29.83,10,10,4,24,10,33,0.00,8,Snow,271
2013-2-4,39,30,21,27,21,14,80,67,52,30.09,29.99,29.92,10,10,10,17,8,25,0.00,4,,249
2013-2-5,44,38,33,36,32,27,100,77,61,29.96,29.92,29.88,10,10,5,14,9,17,0.00,6,Rain-Snow,226
2013-2-6,51,40,28,34,27,18,100,61,26,30.26,30.13,29.95,10,10,10,16,6,24,0.00,2,,285
2013-2-7,37,32,28,36,32,25,100,92,75,30.31,30.22,30.06,10,6,2,9,4,,0.03,6,Snow,80
2013-2-8,48,40,32,43,32,25,100,86,57,30.11,29.96,29.85,10,7,1,23,5,32,0.04,8,Snow,295
2013-2-9,46,35,24,25,15,3,74,49,17,30.32,30.24,30.10,10,10,10,20,8,31,0.00,0,,331
2013-2-10,50,36,21,36,21,16,93,62,27,30.40,30.30,30.16,10,10,4,15,2,16,0.02,2,Rain,160
2013-2-11,57,47,37,55,40,18,100,80,32,30.14,30.00,29.92,10,8,1,23,6,32,0.01,3,Rain,244
2013-2-12,53,44,35,28,21,16,65,44,22,30.10,30.03,29.94,10,10,10,16,9,24,0.00,0,,278
2013-2-13,42,38,35,43,36,28,100,89,65,29.92,29.76,29.61,10,8,2,17,3,28,0.05,8,Rain,254
2013-2-14,50,39,28,30,25,18,81,63,30,30.02,29.96,29.85,10,10,10,14,9,23,0.00,1,,258
2013-2-15,55,40,24,37,30,25,100,77,33,30.06,30.01,29.91,10,10,7,21,5,29,0.00,3,Rain-Snow,257
2013-2-16,33,27,21,28,19,10,86,68,44,30.00,29.91,29.85,10,10,3,13,7,21,0.00,5,Snow,315
2013-2-17,26,20,15,19,7,3,93,55,37,30.18,30.04,29.90,10,9,2,22,12,31,0.00,3,Snow,294
2013-2-18,51,33,15,23,15,5,79,47,26,30.30,30.21,30.10,10,10,10,12,6,16,0.00,0,,207
2013-2-19,46,40,33,41,26,7,100,62,26,30.10,29.93,29.81,10,9,2,23,12,31,0.02,4,Rain-Snow,232
2013-2-20,39,32,26,12,8,3,55,39,22,30.14,30.05,29.95,10,10,10,22,14,32,0.00,0,,282
2013-2-21,46,34,23,19,13,9,68,44,22,30.22,30.15,30.11,10,10,10,18,10,18,0.00,0,,303
2013-2-22,39,34,30,34,31,16,100,97,39,30.27,30.18,30.08,10,7,2,10,5,,0.05,8,Snow,88
2013-2-23,51,42,32,45,38,32,100,95,76,30.10,29.94,29.82,10,6,1,5,1,,0.01,5,,67
2013-2-24,50,42,35,41,26,18,100,58,28,30.06,29.95,29.84,10,10,7,17,6,23,0.00,1,,285
2013-2-25,42,34,26,27,23,21,86,66,49,30.15,30.10,30.05,10,10,10,9,3,,0.00,1,,94
2013-2-26,37,34,30,37,30,19,100,88,60,30.11,29.82,29.59,10,6,2,17,7,22,0.00,8,Snow,85
2013-2-27,42,38,33,39,34,30,100,83,61,29.76,29.70,29.61,10,10,2,17,6,23,0.01,6,,256
2013-2-28,37,34,32,34,27,23,100,76,60,29.84,29.76,29.69,10,10,2,17,10,29,0.00,8,Snow,277